Flag for U.S.A. Weather past 2 weeks in Nashville, Tennessee, U.S.A.

Now
77 °F

More clouds than sun.


Feels Like: 79 °F
Forecast: 69 / 88 °F
Wind: 12 mph from Northeast

Location: Nashville International Airport

Current Time: Jul 30, 2015 at 7:45:33 AM

Latest Report: Jul 30, 2015 at 6:53 AM


Visibility: 10 mi

Pressure: 30.04 "Hg

Humidity: 74%

Dew point: 68 °F

Location of NashvilleLocation

Historic Weather in Nashville — Graph

°F

Nashville temperature yesterday

Maximum temperature yesterday: 93 °F (at 2:53 PM)
Minimum temperature yesterday: 73 °F (at 4:53 AM)
Average temperature yesterday: 83 °F

Past Weeks' High & Low Weather Summary

 TemperatureHumidityPressure
High95 °F (Jul 28, 2:53 PM)100% (Jul 22, 9:53 AM)30.04 "Hg (Jul 22, 9:53 AM)
Low69 °F (Jul 25, 3:53 AM)38% (Jul 25, 2:53 PM)29.78 "Hg (Jul 21, 3:53 AM)
Average82 °F76%29.94 "Hg
* Reported Jul 15 6:53 AM — Jul 30 6:53 AM, Nashville, Weather by CustomWeather, © 2015

Note: Actual official high and low records may vary slightly from our data, if they occured in-between our weather recording intervals... More about our weather records

Advertising

Nashville weather history for previous 24 hours

 ConditionsComfort  
Time TempWeatherWind HumidityBarometerVisibility
6:53 AM
Thu, Jul 30
77 °FBroken clouds.12 mph74%30.04 "Hg10 mi
5:53 AM77 °FPartly sunny.13 mph85%30.02 "Hg10 mi
4:53 AM78 °FPassing clouds.8 mph87%30.01 "Hg10 mi
3:53 AM77 °FPassing clouds.7 mph90%30.00 "Hg10 mi
2:53 AM78 °FClear.3 mph84%29.99 "Hg10 mi
1:53 AM78 °FClear.3 mph82%29.99 "Hg10 mi
12:53 AM79 °FClear.5 mph79%29.98 "Hg10 mi
11:53 PM
Wed, Jul 29
79 °FClear.No wind77%30.01 "Hg10 mi
10:53 PM82 °FPassing clouds.9 mph72%30.02 "Hg10 mi
9:53 PM85 °FPartly cloudy.9 mph80%30.00 "Hg9 mi
8:53 PM86 °FPassing clouds.No wind75%29.97 "Hg10 mi
7:53 PM87 °FScattered clouds.6 mph72%29.96 "Hg10 mi
6:53 PM91 °FScattered clouds.3 mph61%29.94 "Hg10 mi
5:53 PM92 °FScattered clouds.7 mph62%29.94 "Hg10 mi
4:53 PM93 °FPartly sunny.8 mph58%29.94 "Hg10 mi
3:53 PM92 °FBroken clouds.No wind60%29.94 "Hg10 mi
2:53 PM93 °FBroken clouds.No wind58%29.96 "Hg10 mi
1:53 PM92 °FScattered clouds.No wind60%29.99 "Hg10 mi
12:53 PM90 °FPassing clouds.No wind63%30.01 "Hg10 mi
11:53 AM88 °FBroken clouds.7 mph63%30.02 "Hg10 mi
10:53 AM85 °FScattered clouds.6 mph65%30.03 "Hg10 mi
9:53 AM84 °FBroken clouds.3 mph72%30.03 "Hg10 mi
8:53 AM80 °FPassing clouds.3 mph85%30.03 "Hg10 mi
7:53 AM76 °FBroken clouds.5 mph97%30.02 "Hg8 mi
Weather by CustomWeather, © 2015

See weather overviewHow to use our weather pages